sat.trackr.live / text

‹ back to catalog

MOHAMMED VI-B

NORAD 43717 · 2018-095A

PAYLOAD ACTIVE UNKNOWN

§ Identity

Operator
Country
MA
Launch date
2018-11-21
Launch site
FRGUI
Launch vehicle
Mass (kg)
RCS (m²)

External: N2YO · Heavens-Above · Gunter

§ Orbital elements

Epoch: 2026-05-25T03:28:35.288832Z

Period
97.49 min
Inclination
97.9556°
Eccentricity
0.0001123
Mean motion
14.77079727 rev/d
Perigee alt
637.8 km
Apogee alt
639.3 km
Semi-major
7,016.7 km
B*
3.3431e-6
RAAN
217.7860°
Arg perigee
82.8278°
Mean anomaly
277.3060°
Rev number
40,478

§ Raw data

MOHAMMED VI-B1 43717U 18095A   26145.14485288 -.00000027  00000+0  33431-5 0  99912 43717  97.9556 217.7860 0001123  82.8278 277.3060 14.77079727404787

JSON: /api/v1/satellites/43717 · /tle

For live sub-satellite position, see the globe view (requires WebGL).

§ Visibility from observer

Set your observer location to see the next 7 days of passes ≥ 10°. The values pass through the URL so the page stays shareable.

No JS? Fill the form by hand. The geolocation button needs JavaScript.

§ Radio — SatNOGS DB

ModeDescriptionDownlinkUplink
BPSK Telemetry 2.242 GHz

1 transmitter · refreshed weekly from db.satnogs.org